Weather History for KCAG - February, 2012

Change the Weather History Date:

Monday, February 20, 2012

  Actual Average Record
Temperature  
Mean Temperature 24 °F 22 °F  
Max Temperature 30 °F 35 °F 39 °F (2000)
Min Temperature 17 °F 9 °F -5 °F (2006)
Degree Days  
Heating Degree Days 41 43  
Month to date heating degree days 778 910  
Since 1 July heating degree days 5316 5994  
Cooling Degree Days 0 0  
Month to date cooling degree days 0  
Year to date cooling degree days 0  
Moisture  
Dew Point 14 °F    
Average Humidity 63    
Maximum Humidity 84    
Minimum Humidity 42    
Precipitation  
Precipitation T in 0.03 in 0.16 in (2005)
Month to date precipitation 0.25 0.59  
Year to date precipitation 0.57 1.47  
Sea Level Pressure  
Sea Level Pressure 30.01 in    
Wind  
Wind Speed 11 mph (WSW)    
Max Wind Speed 23 mph    
Max Gust Speed 30 mph    
Visibility 5 miles    
Events Snow    
T = Trace of Precipitation, MM = Missing Value Source: NWS Daily Summary

Daily Weather History Graph

Daily Weather History Graph

Search for Another Location

Airport or City:

Trip Planner

Search our weather history database for the weather conditions in past years. The results will help you decide how hot, cold, wet, or windy it might be!

Date:

Astronomy

Feb. 20, 2012 Rise Set
Actual Time 6:57 AM MST 5:50 PM MST
Civil Twilight 6:29 AM MST 6:18 PM MST
Nautical Twilight 5:58 AM MST 6:50 PM MST
Astronomical Twilight 5:26 AM MST 7:21 PM MST
Moon 5:56 AM MST (2/20) 4:58 PM MST (2/20)
Length of Visible Light 11h 48m
Length of Day
10h 53m
Waning Crescent, 1% of the Moon is Illuminated
Feb 20
Waning Crescent
Feb 21
New
Feb 29
First Quarter
Mar 8
Full
Mar 14
Last Quarter

Hourly Weather History & Observations

Time (MST) Temp. Windchill Dew Point Humidity Pressure Visibility Wind Dir Wind Speed Gust Speed Precip Events Conditions
12:10 AM 19.4 °F 4.5 °F 15.8 °F 86% 29.81 in 3.0 mi WSW 17.3 mph - 0.00 in Snow Light Snow
12:27 AM 19.4 °F 5.5 °F 15.8 °F 86% 29.82 in 2.5 mi WSW 15.0 mph - 0.00 in Snow Light Snow
12:38 AM 19.4 °F 5.0 °F 15.8 °F 86% 29.82 in 3.0 mi WSW 16.1 mph - 0.00 in Snow Light Snow
12:53 AM 19.0 °F 5.0 °F 15.1 °F 85% 29.91 in 3.0 mi WSW 15.0 mph - 0.00 in Snow Light Snow
1:01 AM 19.4 °F 5.5 °F 15.8 °F 86% 29.83 in 1.8 mi WSW 15.0 mph - 0.00 in Snow Light Snow
1:25 AM 19.4 °F 7.2 °F 15.8 °F 86% 29.84 in 1.5 mi WSW 11.5 mph - 0.00 in Snow Light Snow
1:36 AM 19.4 °F 6.6 °F 15.8 °F 86% 29.84 in 0.8 mi WSW 12.7 mph - 0.00 in Snow Light Snow
1:41 AM 19.4 °F 6.6 °F 15.8 °F 86% 29.84 in 0.8 mi WSW 12.7 mph - 0.00 in Snow Light Snow
1:53 AM 19.0 °F 5.6 °F 15.1 °F 85% 29.93 in 0.8 mi WSW 13.8 mph - 0.00 in Snow Light Snow
2:19 AM 19.4 °F 5.5 °F 15.8 °F 86% 29.84 in 1.0 mi WSW 15.0 mph - 0.00 in Snow Light Snow
2:30 AM 19.4 °F 6.0 °F 15.8 °F 86% 29.84 in 1.2 mi WSW 13.8 mph - 0.00 in Snow Light Snow
2:44 AM 19.4 °F 5.5 °F 15.8 °F 86% 29.84 in 1.0 mi WSW 15.0 mph - 0.00 in Snow Light Snow
2:53 AM 19.0 °F 5.6 °F 15.1 °F 85% 29.97 in 1.0 mi WSW 13.8 mph - 0.00 in Snow Light Snow
3:01 AM 17.6 °F 3.2 °F 14.0 °F 86% 29.85 in 1.5 mi WSW 15.0 mph - 0.00 in Snow Light Snow
3:53 AM 18.0 °F 4.8 °F 14.0 °F 84% 29.98 in 2.0 mi WSW 12.7 mph - 0.00 in Snow Light Snow
4:09 AM 17.6 °F 5.7 °F 14.0 °F 86% 29.86 in 1.5 mi WSW 10.4 mph - 0.00 in Snow Light Snow
4:26 AM 17.6 °F 5.7 °F 14.0 °F 86% 29.87 in 2.0 mi WSW 10.4 mph - 0.00 in Snow Light Snow
4:46 AM 17.6 °F 5.7 °F 14.0 °F 86% 29.88 in 3.0 mi SW 10.4 mph - 0.00 in Snow Light Snow
4:53 AM 18.0 °F 5.4 °F 14.0 °F 84% 30.01 in 4.0 mi SW 11.5 mph - 0.00 in Snow Light Snow
5:06 AM 17.6 °F 5.7 °F 14.0 °F 86% 29.88 in 4.0 mi SW 10.4 mph - 0.00 in Snow Light Snow
5:53 AM 18.0 °F 6.9 °F 10.9 °F 74% 30.05 in 10.0 mi WSW 9.2 mph - 0.00 in   Overcast
6:53 AM 18.0 °F 6.9 °F 10.0 °F 71% 30.08 in 10.0 mi WSW 9.2 mph - N/A   Overcast
7:53 AM 18.0 °F 7.7 °F 10.9 °F 74% 30.13 in 9.0 mi WSW 8.1 mph - N/A   Overcast
8:53 AM 19.9 °F 12.1 °F 12.9 °F 74% 30.16 in 8.0 mi West 5.8 mph - 0.00 in   Overcast
9:53 AM 21.9 °F 9.8 °F 10.9 °F 63% 30.15 in 10.0 mi WSW 12.7 mph - N/A   Clear
10:53 AM 24.1 °F 13.1 °F 10.9 °F 57% 30.17 in 10.0 mi West 11.5 mph - N/A   Clear
11:53 AM 25.0 °F 15.5 °F 10.9 °F 55% 30.17 in 10.0 mi West 9.2 mph - N/A   Clear
12:53 PM 26.1 °F 17.6 °F 10.9 °F 53% 30.15 in 10.0 mi West 8.1 mph - N/A   Scattered Clouds
1:53 PM 28.0 °F 17.5 °F 9.0 °F 45% 30.14 in 10.0 mi West 12.7 mph - N/A   Clear
2:53 PM 28.9 °F 19.2 °F 10.0 °F 45% 30.14 in 10.0 mi West 11.5 mph - N/A   Clear
3:53 PM 28.0 °F 19.3 °F 10.0 °F 47% 30.14 in 10.0 mi West 9.2 mph - N/A   Partly Cloudy
4:53 PM 26.1 °F 20.5 °F 12.0 °F 55% 30.14 in 10.0 mi SSW 4.6 mph - N/A   Clear
5:53 PM 25.0 °F 20.7 °F 14.0 °F 63% 30.16 in 10.0 mi West 3.5 mph - N/A   Overcast
6:53 PM 27.0 °F 15.6 °F 10.0 °F 49% 30.16 in 10.0 mi WSW 13.8 mph - N/A   Overcast
7:53 PM 25.0 °F 17.1 °F 10.9 °F 55% 30.17 in 10.0 mi West 6.9 mph - N/A   Overcast
8:53 PM 27.0 °F 15.2 °F 10.0 °F 49% 30.15 in 10.0 mi SSW 15.0 mph 23.0 mph N/A   Overcast
9:53 PM 26.1 °F 13.1 °F 14.0 °F 60% 30.16 in 10.0 mi SSW 17.3 mph 23.0 mph N/A   Overcast
10:53 PM 26.1 °F 14.0 °F 15.1 °F 63% 30.16 in 10.0 mi SW 15.0 mph 24.2 mph N/A   Overcast
11:18 PM 24.8 °F 10.3 °F 17.6 °F 74% 30.05 in 2.5 mi WSW 20.7 mph 26.5 mph 0.00 in Snow Light Snow
11:38 PM 24.8 °F 11.1 °F 17.6 °F 74% 30.05 in 1.5 mi WSW 18.4 mph - 0.00 in Snow Light Snow
11:49 PM 24.8 °F 12.4 °F 17.6 °F 74% 30.05 in 3.0 mi WSW 15.0 mph 27.6 mph 0.00 in Snow Light Snow
11:50 PM 25.0 °F 13.1 °F 17.1 °F 72% 30.17 in 3.0 mi WSW 13.8 mph 27.6 mph 0.00 in Snow Light Snow